GW3225 Weather Reports


time (UTC)temp
F
wind
direction
speed
knots
gust
knots
rain 1hr
in
rain 24hr
in
rain mn
in
humidity
%
barometer
mb
20260504042055 50 193 0.0 0.0 0.00 0.00 0.00 52 1009.5
20260504041551 50 121 1.7 2.6 0.00 0.00 0.00 53 1009.7
20260504041047 50 182 0.0 0.9 0.00 0.00 0.00 53 1009.7
20260504040545 50 127 1.7 5.2 0.00 0.00 0.00 53 1009.6
20260504040041 51 211 0.0 0.9 0.00 0.00 0.00 53 1009.6
20260504035538 51 188 0.0 0.0 0.00 0.00 0.00 54 1009.6
20260504035034 51 165 0.9 0.9 0.00 0.00 0.00 54 1009.5
20260504034533 51 212 0.9 1.7 0.00 0.00 0.00 53 1009.7
20260504034029 51 206 1.7 2.6 0.00 0.00 0.00 52 1009.6
20260504033528 51 241 0.9 1.7 0.00 0.00 0.00 53 1009.7
20260504033024 51 252 1.7 1.7 0.00 0.00 0.00 52 1009.6
20260504032521 51 196 0.0 0.0 0.00 0.00 0.00 52 1009.8
20260504032018 51 147 1.7 2.6 0.00 0.00 0.00 52 1009.7
20260504031515 52 171 0.9 0.9 0.00 0.00 0.00 51 1009.8
20260504031011 52 206 0.0 0.9 0.00 0.00 0.00 52 1009.7
20260504030509 52 5 2.6 3.5 0.00 0.00 0.00 51 1009.8
20260504030004 51 183 0.0 0.9 0.00 0.00 0.00 53 1009.6
20260504025501 51 189 0.0 0.0 0.00 0.00 0.00 54 1009.8
20260504024958 51 187 0.0 0.0 0.00 0.00 0.00 54 1009.8
20260504024455 52 197 0.0 0.9 0.00 0.00 0.00 54 1009.7
20260504023953 52 202 0.9 1.7 0.00 0.00 0.00 54 1009.9
20260504023449 52 197 0.0 0.9 0.00 0.00 0.00 53 1009.9
20260504022944 52 196 0.9 0.9 0.00 0.00 0.00 53 1009.9
20260504022441 53 193 0.0 0.9 0.00 0.00 0.00 52 1010.1
20260504021938 53 51 0.9 1.7 0.00 0.00 0.00 52 1010.2
20260504021435 53 189 0.0 0.0 0.00 0.00 0.00 52 1010.2
20260504020932 53 309 2.6 2.6 0.00 0.00 0.00 51 1009.8
20260504020429 53 224 2.6 3.5 0.00 0.00 0.00 52 1009.9
20260504015925 53 179 0.9 1.7 0.00 0.00 0.00 52 1010.0
20260504015421 53 219 1.7 2.6 0.00 0.00 0.00 51 1010.1
20260504014917 53 306 5.2 8.7 0.00 0.00 0.00 50 1010.1
20260504014414 54 343 2.6 7.8 0.00 0.00 0.00 49 1010.3
20260504013911 54 276 3.5 3.5 0.00 0.00 0.00 47 1010.1
20260504013409 54 105 2.6 3.5 0.00 0.00 0.00 48 1009.9
20260504012905 54 181 4.3 8.7 0.00 0.00 0.00 47 1009.9
20260504012403 53 324 4.3 8.7 0.00 0.00 0.00 48 1009.9
20260504011900 53 320 4.3 7.8 0.00 0.00 0.00 47 1009.8
20260504011356 53 241 0.9 0.9 0.00 0.00 0.00 48 1010.1
20260504010847 53 301 2.6 3.5 0.00 0.00 0.00 49 1009.8
20260504010343 53 247 2.6 2.6 0.00 0.00 0.00 49 1009.9
20260504005839 53 26 1.7 2.6 0.00 0.00 0.00 49 1010.2
20260504005336 53 289 3.5 6.1 0.00 0.00 0.00 48 1010.1
20260504004834 53 199 5.2 11.3 0.00 0.00 0.00 47 1010.3
20260504004331 53 177 3.5 5.2 0.00 0.00 0.00 47 1010.3
20260504003827 53 143 3.5 6.1 0.00 0.00 0.00 46 1010.4
20260504003325 53 194 0.9 1.7 0.00 0.00 0.00 48 1010.2
20260504002821 53 242 4.3 7.0 0.00 0.00 0.00 47 1010.4
20260504002318 53 116 6.1 11.3 0.00 0.00 0.00 46 1010.3
20260504001816 53 289 4.3 6.1 0.00 0.00 0.00 45 1010.4
20260504001313 53 302 5.2 7.8 0.00 0.00 0.00 44 1010.4
20260504000810 53 237 2.6 3.5 0.00 0.00 0.00 45 1010.2
20260504000307 53 293 4.3 5.2 0.00 0.00 0.00 46 1009.9
20260503235804 53 253 1.7 2.6 0.00 0.00 0.00 46 1009.9
20260503235302 53 237 2.6 2.6 0.00 0.00 0.00 45 1009.9
20260503234759 53 199 2.6 2.6 0.00 0.00 0.00 46 1010.0
20260503234257 53 318 3.5 5.2 0.00 0.00 0.00 46 1010.0
20260503233754 53 294 3.5 8.7 0.00 0.00 0.00 45 1010.0
20260503233249 53 310 2.6 2.6 0.00 0.00 0.00 45 1010.1
20260503232746 53 157 3.5 6.1 0.00 0.00 0.00 45 1010.1
20260503232238 53 259 7.0 13.0 0.00 0.00 0.00 44 1010.3
20260503231736 54 303 5.2 7.8 0.00 0.00 0.00 43 1010.2
20260503231233 54 320 8.7 16.5 0.00 0.00 0.00 43 1010.0
20260503230728 54 261 5.2 9.6 0.00 0.00 0.00 43 1010.0
20260503230226 54 44 7.0 9.6 0.00 0.00 0.00 44 1009.9
20260503225718 55 15 4.3 7.0 0.00 0.00 0.00 44 1009.7
20260503225217 55 275 8.7 19.1 0.00 0.00 0.00 42 1009.8
20260503224714 55 148 2.6 3.5 0.00 0.00 0.00 42 1009.5
20260503224212 55 287 2.6 3.5 0.00 0.00 0.00 41 1009.7
20260503223710 55 310 6.1 7.8 0.00 0.00 0.00 40 1009.6
20260503223208 56 288 7.8 12.2 0.00 0.00 0.00 38 1009.6
20260503222704 56 41 5.2 7.0 0.00 0.00 0.00 38 1009.7
20260503222202 56 63 3.5 5.2 0.00 0.00 0.00 38 1009.4
20260503221700 56 298 3.5 3.5 0.00 0.00 0.00 38 1009.6
20260503221157 56 133 4.3 7.0 0.00 0.00 0.00 38 1009.4
20260503220654 56 342 6.1 7.8 0.00 0.00 0.00 38 1009.6
20260503220150 56 288 4.3 6.1 0.00 0.00 0.00 37 1009.5
20260503215647 56 13 3.5 6.1 0.00 0.00 0.00 37 1009.7
20260503215143 56 328 3.5 5.2 0.00 0.00 0.00 37 1009.4
20260503214642 56 242 4.3 7.0 0.00 0.00 0.00 39 1009.4
20260503214137 56 323 5.2 9.6 0.00 0.00 0.00 36 1009.6
20260503213632 56 46 5.2 7.8 0.00 0.00 0.00 38 1009.4
20260503213128 57 305 4.3 5.2 0.00 0.00 0.00 39 1009.2
20260503212626 57 236 2.6 2.6 0.00 0.00 0.00 38 1009.3
20260503212123 58 295 3.5 7.0 0.00 0.00 0.00 37 1009.2
20260503211621 58 269 4.3 6.1 0.00 0.00 0.00 36 1009.4
20260503211116 58 20 6.1 8.7 0.00 0.00 0.00 36 1009.3
20260503210612 59 331 4.3 6.1 0.00 0.00 0.00 35 1009.3
20260503210108 59 142 0.9 1.7 0.00 0.00 0.00 36 1009.3
20260503205604 58 249 4.3 6.1 0.00 0.00 0.00 36 1009.5
20260503205100 59 303 7.0 9.6 0.00 0.00 0.00 36 1009.5
20260503204558 57 282 7.0 9.6 0.00 0.00 0.00 36 1009.7
20260503204055 57 217 2.6 3.5 0.00 0.00 0.00 38 1009.5
20260503203552 58 208 5.2 7.8 0.00 0.00 0.00 37 1009.3
20260503203049 58 3 3.5 6.1 0.00 0.00 0.00 38 1009.5
20260503202547 57 170 1.7 1.7 0.00 0.00 0.00 40 1009.5
20260503202044 57 257 4.3 5.2 0.00 0.00 0.00 39 1009.9
20260503201543 56 278 2.6 2.6 0.00 0.00 0.00 40 1009.9
20260503201039 55 189 1.7 1.7 0.00 0.00 0.00 41 1009.8
20260503200535 55 173 0.0 0.0 0.00 0.00 0.00 42 1009.8
20260503200033 54 201 1.7 1.7 0.00 0.00 0.00 40 1010.1
20260503195530 54 219 0.9 0.9 0.00 0.00 0.00 42 1010.1
20260503195026 53 319 1.7 2.6 0.00 0.00 0.00 41 1010.4
20260503194524 53 301 0.9 1.7 0.00 0.00 0.00 42 1010.4
20260503194023 53 264 1.7 2.6 0.00 0.00 0.00 42 1010.5
20260503193520 53 233 2.6 2.6 0.00 0.00 0.00 41 1010.6
20260503193015 53 140 1.7 2.6 0.00 0.00 0.00 42 1010.6
20260503192512 53 86 1.7 1.7 0.00 0.00 0.00 43 1011.0
20260503192008 53 216 0.0 0.9 0.00 0.00 0.00 44 1011.0
20260503191505 53 219 0.9 1.7 0.00 0.00 0.00 43 1010.8
20260503191002 53 192 1.7 2.6 0.00 0.00 0.00 41 1010.8
20260503190459 53 230 1.7 1.7 0.00 0.00 0.00 42 1011.1
20260503185956 53 202 5.2 7.8 0.00 0.00 0.00 41 1011.0
20260503185452 53 269 2.6 3.5 0.00 0.00 0.00 41 1011.2
20260503184951 53 51 1.7 3.5 0.00 0.00 0.00 42 1011.1
20260503184448 53 13 1.7 2.6 0.00 0.00 0.00 42 1011.4
20260503183944 53 130 1.7 2.6 0.00 0.00 0.00 41 1011.4
20260503183441 53 232 1.7 2.6 0.00 0.00 0.00 42 1011.4
20260503182938 54 271 3.5 5.2 0.00 0.00 0.00 40 1011.7
20260503182437 53 242 3.5 3.5 0.00 0.00 0.00 40 1011.5
20260503181934 53 187 1.7 1.7 0.00 0.00 0.00 43 1011.8
20260503181431 52 66 3.5 3.5 0.00 0.00 0.00 42 1012.1
20260503180927 51 295 1.7 2.6 0.00 0.00 0.00 44 1011.9
20260503180426 51 248 1.7 2.6 0.00 0.00 0.00 43 1012.0
20260503175923 53 229 4.3 8.7 0.00 0.00 0.00 40 1012.0
20260503175421 52 186 1.7 2.6 0.00 0.00 0.00 41 1011.9
20260503174916 53 293 4.3 7.8 0.00 0.00 0.00 40 1012.1
20260503174415 52 202 2.6 2.6 0.00 0.00 0.00 38 1011.9
20260503173914 51 212 1.7 2.6 0.00 0.00 0.00 39 1012.1
20260503173411 52 319 2.6 2.6 0.00 0.00 0.00 38 1012.1
20260503172908 51 187 0.9 0.9 0.00 0.00 0.00 40 1012.2
20260503172406 51 197 0.9 1.7 0.00 0.00 0.00 40 1012.2
20260503171901 52 225 6.1 7.8 0.00 0.00 0.00 36 1012.0
20260503171358 51 344 2.6 2.6 0.00 0.00 0.00 41 1012.1
20260503170856 52 1 2.6 3.5 0.00 0.00 0.00 39 1012.2
20260503170352 53 263 3.5 5.2 0.00 0.00 0.00 40 1012.5
20260503150744 49 310 3.5 5.2 0.00 0.00 0.00 48 1013.2
20260503150240 49 82 0.9 1.7 0.00 0.00 0.00 51 1013.1
20260503140205 45 208 2.6 2.6 0.00 0.00 0.00 64 1013.5
20260503131134 42 284 2.6 2.6 0.00 0.00 0.00 73 1014.0
20260503130632 41 215 1.7 2.6 0.00 0.00 0.00 74 1014.2
20260503130129 41 299 2.6 3.5 0.00 0.00 0.00 75 1013.9
20260503110516 35 221 0.9 0.9 0.00 0.00 0.00 82 1013.9
20260503090403 34 185 0.9 1.7 0.00 0.00 0.00 88 1013.3
20260503081329 34 183 0.0 0.0 0.00 0.00 0.00 87 1013.5
20260503080826 34 174 0.0 0.0 0.00 0.00 0.00 87 1013.5
20260503080323 34 183 0.0 0.0 0.00 0.00 0.00 88 1013.5
20260503072759 35 191 0.0 0.0 0.00 0.00 0.00 86 1013.5
20260503072256 35 193 0.0 0.0 0.00 0.00 0.00 85 1013.7
20260503071752 35 193 0.0 0.0 0.00 0.00 0.00 85 1013.5
20260503071250 35 195 0.0 0.0 0.00 0.00 0.00 85 1013.6
20260503070746 35 185 0.0 0.0 0.00 0.00 0.00 85 1013.6
20260503070244 35 210 0.9 0.9 0.00 0.00 0.00 85 1013.5
20260503060209 37 196 0.0 0.0 0.00 0.00 0.00 81 1013.8
20260503054656 37 168 1.7 1.7 0.00 0.00 0.00 81 1013.9
20260503054153 37 195 0.0 0.0 0.00 0.00 0.00 80 1014.2
20260503053651 37 194 0.0 0.0 0.00 0.00 0.00 80 1014.0
20260503053149 37 196 0.0 0.0 0.00 0.00 0.00 79 1014.0
20260503052645 38 194 0.0 0.0 0.00 0.00 0.00 80 1014.0
20260503052142 38 194 0.0 0.0 0.00 0.00 0.00 79 1014.3
20260503051637 38 195 0.0 0.0 0.00 0.00 0.00 78 1014.2
20260503051135 38 183 0.0 0.9 0.00 0.00 0.00 78 1014.5
20260503050631 38 205 0.0 0.9 0.00 0.00 0.00 78 1014.3
20260503050128 38 194 0.0 0.0 0.00 0.00 0.00 78 1014.4
20260503045626 38 178 0.0 0.0 0.00 0.00 0.00 78 1014.4
20260503045123 38 194 0.0 0.0 0.00 0.00 0.00 78 1014.5
20260503044619 38 194 0.0 0.0 0.00 0.00 0.00 78 1014.5
20260503044117 38 190 0.0 0.0 0.00 0.00 0.00 78 1014.5
20260503043613 38 163 0.9 0.9 0.00 0.00 0.00 78 1014.5
20260503043110 38 167 1.7 1.7 0.00 0.00 0.00 78 1014.7
20260503042607 38 185 0.0 0.0 0.00 0.00 0.00 77 1014.6